Notices

What's New in latest Release from April 7th, 2021:

- Updated Glossary, including Speed of Maximum Gust, and Total Hourly Precipitation

- Updated national and regional climate services offices contacts and prices information

- Addition of station inventory lists for 1981-2010, 1971-2000, and 1961-1990 Normals.

If you haven't already, please take our survey and provide feedback about our website: https://eccc.sondage-survey.ca/f/LanguageSelection.aspx?s=442ca660-fcf1-47c0-95a9-59707d6fd709

Hourly Data Report for January 14, 2021

SHEARWATER RCS
NOVA SCOTIA
Current Station Operator: ECCC - MSC

44°37'47.000" N
63°30'48.000" W
24.00 m
8205092
71264
AAW

Download Data

Hourly Data (January 2021)
Hourly Data Report for January 14, 2021
TIME
LST
Temp Definition
°C
Dew Point Definition
°C
Rel Hum Definition
%
Precip. Amount Definition
mm

Wind Dir Definition
10's deg

Wind Spd Definition
km/h
Visibility Definition
km
Stn Press Definition
kPa
Hmdx Definition


Wind Chill Definition


Weather Definition


00:00 -0.1 -3.2 80 0.0 14 3   101.09   -1 LegendNANA
01:00 1.2 -4.1 68 0.0 14 9   101.07     LegendNANA
02:00 1.6 -4.4 64 0.0 15 11   101.09     LegendNANA
03:00 2.0 -3.4 67 0.0 16 15   101.08     LegendNANA
04:00 2.2 -3.6 65 0.0 15 13   101.04     LegendNANA
05:00 2.4 -3.4 65 0.0 14 8   101.00     LegendNANA
06:00 2.5 -2.6 69 0.0 14 6   101.00     LegendNANA
07:00 3.0 -1.9 70 0.0 15 10   101.00     LegendNANA
08:00 3.4 -1.8 69 0.0 15 14   101.00     LegendNANA
09:00 3.7 -1.1 71 0.0 17 17   101.03     LegendNANA
10:00 3.6 0.0 77 0.0 16 18   101.05     LegendNANA
11:00 4.2 0.1 74 0.0 16 17   101.02     LegendNANA
12:00 3.7 0.9 82 0.0 18 17   100.95     LegendNANA
13:00
14:00 3.0 2.3 95 0.2 18 9   100.84     LegendNANA
15:00 3.0 2.4 95 0.2 21 5   100.88     LegendNANA
16:00 3.0 2.4 96 0.2 17 5   100.88     LegendNANA
17:00 2.6 1.9 95 0.5   0   100.89     LegendNANA
18:00 3.1 2.4 95 0.2 13 6   100.91     LegendNANA
19:00 2.7 2.0 95 0.0 12 5   100.93     LegendNANA
20:00 2.5 1.8 95 0.0 5 6   100.93     LegendNANA
21:00 2.6 2.0 95 0.0 8 4   100.93     LegendNANA
22:00 2.0 1.5 96 0.0 3 8   100.92     LegendNANA
23:00 1.9 1.4 97 0.3 2 8   100.94     LegendNANA

Notes on Data Quality.

Legend

  • E = Estimated
  • M = Missing
  • NA = Not Available*
  • [empty] = Indicates an unobserved value
Date modified: